N7DTY Weather Reports


time (UTC)temp
F
wind
direction
speed
knots
gust
knots
rain 1hr
in
rain 24hr
in
rain mn
in
humidity
%
barometer
mb
20260505210043 61 184 3.5 8.7 0.00 0.00 0.00 77 1015.3
20260505204543 61 163 4.3 9.6 0.00 0.00 0.00 77 1015.4
20260505203047 61 333 2.6 7.8 0.00 0.00 0.00 77 1015.4
20260505201542 60 170 3.5 10.4 0.00 0.00 0.00 77 1015.4
20260505200041 61 206 2.6 8.7 0.00 0.00 0.00 78 1015.3
20260505194543 60 184 3.5 8.7 0.00 0.00 0.00 78 1015.4
20260505193039 60 181 3.5 8.7 0.00 0.00 0.00 79 1015.3
20260505191538 60 199 2.6 8.7 0.00 0.00 0.00 79 1015.4
20260505190038 59 191 2.6 7.0 0.00 0.00 0.00 80 1015.3
20260505184534 58 146 1.7 6.1 0.00 0.00 0.00 82 1015.3
20260505183032 58 153 2.6 6.1 0.00 0.00 0.00 82 1015.4
20260505181531 58 141 1.7 5.2 0.00 0.00 0.00 83 1015.3
20260505180029 57 193 2.6 7.8 0.00 0.00 0.00 84 1015.2
20260505174529 57 176 1.7 7.0 0.00 0.00 0.00 85 1015.2
20260505173039 56 167 1.7 7.0 0.00 0.00 0.00 86 1015.2
20260505171526 56 98 1.7 7.0 0.00 0.00 0.00 86 1015.3
20260505170026 56 214 1.7 5.2 0.00 0.00 0.00 86 1015.3
20260505164543 55 177 2.6 7.0 0.00 0.00 0.00 87 1015.2
20260505163018 55 182 2.6 7.8 0.00 0.00 0.00 87 1015.1
20260505161515 55 197 1.7 7.0 0.00 0.00 0.00 88 1015.3
20260505153011 55 187 3.5 12.2 0.00 0.00 0.00 87 1015.1
20260505151508 55 157 3.5 13.9 0.00 0.00 0.00 88 1014.9
20260505140106 53 163 2.6 6.1 0.00 0.00 0.00 88 1014.0
20260505124543 54 186 3.5 7.0 0.00 0.00 0.00 87 1013.2
20260505123040 54 182 3.5 8.7 0.00 0.00 0.00 87 1013.0
20260505121538 54 154 3.5 7.8 0.00 0.00 0.00 87 1012.9
20260505120038 54 186 4.3 12.2 0.00 0.00 0.00 86 1012.8
20260505114538 54 180 3.5 9.6 0.00 0.00 0.00 86 1012.7
20260505113031 54 194 3.5 8.7 0.00 0.00 0.00 86 1012.5
20260505111534 54 190 3.5 9.6 0.00 0.00 0.00 86 1012.3
20260505101520 55 170 4.3 10.4 0.00 0.00 0.00 83 1011.8
20260505100018 55 179 4.3 11.3 0.00 0.00 0.00 83 1011.7
20260505094515 55 178 5.2 12.2 0.00 0.00 0.00 81 1011.7
20260505093013 56 213 3.5 11.3 0.00 0.00 0.00 79 1011.7
20260505091510 57 200 2.6 11.3 0.00 0.00 0.00 77 1011.4
20260505090009 58 190 3.5 10.4 0.00 0.00 0.00 73 1011.2
20260505084507 58 178 3.5 12.2 0.00 0.00 0.00 70 1011.2
20260505083005 57 171 1.7 7.0 0.00 0.00 0.00 74 1011.0
20260505081503 57 186 1.7 6.1 0.00 0.00 0.00 78 1010.9
20260505074610 56 173 2.6 13.9 0.00 0.00 0.00 79 1010.5
20260505073056 57 184 2.6 8.7 0.00 0.00 0.00 77 1010.4
20260505071553 57 187 4.3 10.4 0.00 0.00 0.00 78 1010.2
20260505070052 57 216 2.6 7.8 0.00 0.00 0.00 77 1009.9
20260505064548 58 227 2.6 9.6 0.00 0.00 0.00 76 1009.9
20260505063055 58 161 3.5 11.3 0.00 0.00 0.00 76 1009.8
20260505061615 58 192 2.6 7.0 0.00 0.00 0.00 76 1009.7
20260505060052 58 225 1.7 7.0 0.00 0.00 0.00 77 1009.6
20260505054559 59 163 1.7 8.7 0.00 0.00 0.00 76 1009.4
20260505053046 59 173 2.6 8.7 0.00 0.00 0.00 76 1009.4
20260505051546 59 174 2.6 9.6 0.00 0.00 0.00 77 1009.2
20260505041543 60 201 3.5 8.7 0.00 0.00 0.00 79 1008.8
20260505040043 60 311 0.0 2.6 0.00 0.00 0.00 80 1008.5
20260505034545 61 185 0.0 2.6 0.00 0.00 0.00 77 1008.4
20260505033049 61 13 0.0 3.5 0.00 0.00 0.00 76 1008.3
20260505031541 63 291 0.0 2.6 0.00 0.00 0.00 72 1008.1
20260505030043 65 180 0.9 1.7 0.00 0.00 0.00 65 1008.0
20260505024603 66 235 1.7 5.2 0.00 0.00 0.00 61 1008.1
20260505023041 67 182 1.7 6.1 0.00 0.00 0.00 55 1008.1
20260505021549 67 173 1.7 7.8 0.00 0.00 0.00 54 1008.3
20260505020044 67 145 1.7 6.1 0.00 0.00 0.00 55 1008.3
20260505014535 67 146 1.7 7.0 0.00 0.00 0.00 57 1008.4
20260505013033 68 108 2.6 7.8 0.00 0.00 0.00 55 1008.5
20260505011547 67 269 0.0 2.6 0.00 0.00 0.00 59 1008.6
20260505010031 68 205 2.6 7.8 0.00 0.00 0.00 55 1008.7
20260505004541 69 188 2.6 7.0 0.00 0.00 0.00 58 1008.6
20260505003030 69 202 0.9 7.0 0.00 0.00 0.00 59 1008.6
20260505001532 70 232 2.6 7.8 0.00 0.00 0.00 54 1008.7
20260505000028 71 218 1.7 6.1 0.00 0.00 0.00 55 1008.9
20260504234528 71 173 0.9 6.1 0.00 0.00 0.00 53 1008.9
20260504233028 72 200 2.6 7.0 0.00 0.00 0.00 48 1009.0
20260504231527 72 178 2.6 7.0 0.00 0.00 0.00 48 1009.1
20260504230027 73 182 2.6 5.2 0.00 0.00 0.00 48 1009.4
20260504224525 73 167 1.7 5.2 0.00 0.00 0.00 48 1009.3
20260504223031 73 169 1.7 6.1 0.00 0.00 0.00 53 1009.4
20260504221525 72 209 1.7 5.2 0.00 0.00 0.00 53 1009.6
20260504220023 72 217 1.7 6.1 0.00 0.00 0.00 54 1009.7
20260504214519 71 197 1.7 5.2 0.00 0.00 0.00 58 1009.6
20260504213021 71 179 1.7 4.3 0.00 0.00 0.00 58 1009.6
20260504211519 71 221 2.6 6.1 0.00 0.00 0.00 58 1009.8